Location: Newark
(51.3000°N, 178.2000°W)
Time: 01:13:50
(UTC+00:00)

ISS - Pass Details

Date: 13 May 2021
Orbit: 417 x 422 km, 51.6° (Epoch: 15 June)

Event Time Altitude Azimuth Distance (km) Brightness Sun altitude
Exits shadow 12:27:24 48° 275° (W) 561 -3.3 -19.7°
Maximum altitude 12:28:15 83° 355° (N) 430 -3.8 -19.7°
Drops below altitude 10° 12:31:39 10° 86° (E) 1,509 -0.8 -19.6°
Sets 12:33:45 0° 87° (E) 2,375 0.3 -19.5°
